Location: Moondance
(40.1328°N, 106.5113°W)
Time: 16:37:39
(UTC-06:00)

ISS - Visible Passes

Search period start: 18 July 2018 00:00
Search period end: 28 July 2018 00:00
Orbit: 402 x 408 km, 51.6° (Epoch: 19 July)

Date Brightness Start Highest point End Pass type
(mag) Time Alt. Az. Time Alt. Az. Time Alt. Az.
18 Jul -0.9 00:33:03 18° N 00:33:03 18° N 00:34:38 10° NNE visible
18 Jul -0.3 02:08:32 10° NNW 02:09:36 11° N 02:10:41 10° NNE visible
18 Jul -0.8 03:44:48 10° NNW 03:47:08 18° NNE 03:49:28 10° ENE visible
18 Jul -3.8 05:20:44 10° NW 05:24:01 86° NE 05:27:19 10° SE visible
18 Jul -3.3 22:00:20 10° SSW 22:03:20 35° SE 22:04:26 26° E visible
18 Jul -1.8 23:36:57 10° W 23:39:50 28° NNW 23:42:45 10° NE visible
19 Jul -0.3 01:15:50 10° NNW 01:17:10 12° N 01:18:31 10° NNE visible
19 Jul -0.5 02:52:57 10° NNW 02:54:46 14° NNE 02:56:35 10° NE visible
19 Jul -2.7 04:28:43 10° NW 04:31:54 46° NNE 04:35:04 10° ESE visible
19 Jul -2.4 21:09:04 10° S 21:11:23 18° SE 21:13:42 10° E visible
19 Jul -2.8 22:44:28 10° WSW 22:47:38 46° NNW 22:50:48 10° NE visible
20 Jul -0.5 00:22:56 10° NW 00:24:45 14° NNW 00:26:34 10° NNE visible
20 Jul -0.3 02:01:01 10° NNW 02:02:21 12° N 02:03:41 10° NNE visible
20 Jul -1.7 03:36:47 10° NW 03:39:41 28° NNE 03:42:34 10° E visible
20 Jul -3.2 05:13:10 10° WNW 05:16:12 36° SW 05:19:14 10° SSE visible
20 Jul -3.9 21:52:14 10° SW 21:55:29 88° NW 21:58:46 10° NE visible
20 Jul -0.8 23:30:03 10° WNW 23:32:21 18° NNW 23:34:41 10° NNE visible
21 Jul -0.2 01:08:49 10° NNW 01:09:53 11° N 01:10:57 10° NNE visible
21 Jul -1.0 02:44:52 10° NNW 02:47:22 20° NNE 02:49:52 10° ENE visible
21 Jul -4.0 04:20:53 10° NW 04:24:10 73° SW 04:27:26 10° SE visible
21 Jul -3.6 21:00:17 10° SSW 21:03:25 45° SE 21:06:33 10° ENE visible
21 Jul -1.4 22:37:17 10° W 22:40:01 24° NNW 22:42:47 10° NNE visible
22 Jul -0.3 00:16:14 10° NNW 00:17:25 11° N 00:18:36 10° NNE visible
22 Jul -0.6 01:52:59 10° NNW 01:54:59 15° NNE 01:56:59 10° NE visible
22 Jul -3.3 03:28:47 10° NW 03:32:02 57° NE 03:35:16 10° ESE visible
22 Jul -2.1 05:06:16 10° W 05:08:11 15° SW 05:10:06 10° SSW visible
22 Jul -2.2 21:44:40 10° W 21:47:45 38° NNW 21:50:50 10° NE visible
22 Jul -0.5 23:23:19 10° NW 23:24:57 13° N 23:26:34 10° NNE visible
23 Jul -0.5 01:01:02 10° NNW 01:02:33 12° N 01:03:23 12° NNE visible
23 Jul -3.4 20:52:18 10° WSW 20:55:31 69° NW 20:58:48 10° NE visible
23 Jul -0.7 22:30:22 10° WNW 22:32:30 16° NNW 22:34:38 10° NNE visible
24 Jul -0.4 00:08:57 10° NNW 00:10:03 11° N 00:11:10 10° NNE visible
24 Jul -1.1 21:37:30 10° WNW 21:40:06 21° NNW 21:42:43 10° NNE visible
24 Jul -0.5 23:16:27 10° NNW 23:17:33 11° N 23:18:37 10° NNE visible
25 Jul -0.5 00:52:54 10° NNW 00:53:43 13° NNW 00:53:43 13° NNW visible
25 Jul -0.6 22:23:35 10° NW 22:25:02 12° N 22:26:28 10° NNE visible
26 Jul -0.7 00:00:57 10° NNW 00:02:38 13° NNE 00:02:57 13° NNE visible
26 Jul -0.8 21:30:35 10° NW 21:32:31 15° NNW 21:34:28 10° NNE visible
26 Jul -0.7 23:08:53 10° NNW 23:10:06 12° N 23:11:19 10° NNE visible
27 Jul -0.4 00:44:41 10° NNW 00:44:53 11° NNW 00:44:53 11° NNW visible
27 Jul -0.7 22:16:32 10° NNW 22:17:33 11° N 22:18:35 10° NNE visible
27 Jul -0.9 23:52:42 10° NNW 23:54:15 17° N 23:54:15 17° N visible
